Terminal Aerodrome Forecast
Issued by NWS

Home | Current Version | Previous Version | Text Only | Print | Product List | Glossary Off
Versions: 1 2 3 4 5 6 7 8 9 10 11 12 13

000
FTUS43 KTOP 231100
TAFMHK
TAF
KMHK 231125Z 2312/2412 27006KT P6SM BKN035
     FM231400 31011KT P6SM BKN020
     FM232100 34014KT 3SM -SN BR OVC008=

USA.gov is the U.S. government's official web portal to all federal, state and local government web resources and services.